Weather History for KGRI - January, 2013

Change the Weather History Date:

Friday, January 4, 2013

  Actual Average Record
Temperature  
Mean Temperature 22 °F 25 °F  
Max Temperature 35 °F 35 °F 61 °F (1909)
Min Temperature 9 °F 14 °F -20 °F (1959)
Degree Days  
Heating Degree Days 43 40  
Month to date heating degree days 176 160  
Since 1 July heating degree days 2501 2679  
Cooling Degree Days 0 0  
Month to date cooling degree days 0 0  
Year to date cooling degree days 0 0  
Moisture  
Dew Point 12 °F    
Average Humidity 72    
Maximum Humidity 88    
Minimum Humidity 56    
Precipitation  
Precipitation 0.00 in 0.01 in 0.49 in (2005)
Month to date precipitation T 0.06  
Year to date precipitation T 0.06  
Sea Level Pressure  
Sea Level Pressure 30.25 in    
Wind  
Wind Speed 8 mph (SW)    
Max Wind Speed 14 mph    
Max Gust Speed 17 mph    
Visibility 10 miles    
Events      
T = Trace of Precipitation, MM = Missing Value Source: NWS Daily Summary

Daily Weather History Graph

Daily Weather History Graph

Search for Another Location

Airport or City:

Trip Planner

Search our weather history database for the weather conditions in past years. The results will help you decide how hot, cold, wet, or windy it might be!

Date:

Astronomy

Jan. 04, 2013 Rise Set
Actual Time 7:58 AM CST 5:18 PM CST
Civil Twilight 7:27 AM CST 5:49 PM CST
Nautical Twilight 6:53 AM CST 6:24 PM CST
Astronomical Twilight 6:19 AM CST 6:57 PM CST
Moon No Moon Rise 11:38 AM CST (1/4)
Length of Visible Light 10h 22m
Length of Day
9h 20m
Waning Gibbous, 55% of the Moon is Illuminated
Jan 4
Waning Gibbous
Jan 4
Last Quarter
Jan 11
New
Jan 18
First Quarter
Jan 26
Full

Hourly Weather History & Observations

Time (CST) Temp. Windchill Dew Point Humidity Pressure Visibility Wind Dir Wind Speed Gust Speed Precip Events Conditions
12:53 AM 17.1 °F 3.6 °F 12.9 °F 84% 30.33 in 10.0 mi SW 12.7 mph - N/A   Clear
1:53 AM 16.0 °F 2.3 °F 12.0 °F 84% 30.30 in 10.0 mi WSW 12.7 mph - N/A   Clear
2:53 AM 15.1 °F 2.5 °F 10.0 °F 80% 30.30 in 10.0 mi SW 10.4 mph - N/A   Clear
3:53 AM 12.0 °F 2.7 °F 8.1 °F 84% 30.31 in 10.0 mi WSW 5.8 mph - N/A   Clear
4:53 AM 12.0 °F 0.5 °F 8.1 °F 84% 30.29 in 10.0 mi WSW 8.1 mph - N/A   Clear
5:53 AM 10.9 °F -0.8 °F 6.1 °F 81% 30.29 in 10.0 mi WSW 8.1 mph - N/A   Clear
6:53 AM 10.9 °F -1.8 °F 6.1 °F 81% 30.29 in 10.0 mi WSW 9.2 mph - N/A   Clear
7:53 AM 10.0 °F -1.9 °F 5.0 °F 80% 30.30 in 10.0 mi WSW 8.1 mph - N/A   Clear
8:53 AM 10.9 °F 1.4 °F 5.0 °F 77% 30.29 in 10.0 mi WSW 5.8 mph - N/A   Clear
9:53 AM 16.0 °F 5.3 °F 8.1 °F 71% 30.31 in 10.0 mi WSW 8.1 mph - N/A   Clear
10:53 AM 19.9 °F 12.1 °F 10.9 °F 68% 30.30 in 10.0 mi WSW 5.8 mph - N/A   Clear
11:53 AM 25.0 °F 17.1 °F 15.1 °F 66% 30.28 in 10.0 mi SW 6.9 mph - N/A   Clear
12:53 PM 28.0 °F 20.8 °F 16.0 °F 61% 30.25 in 10.0 mi WSW 6.9 mph - N/A   Clear
1:53 PM 30.9 °F 26.2 °F 18.0 °F 59% 30.21 in 10.0 mi West 4.6 mph - N/A   Clear
2:53 PM 33.1 °F 28.7 °F 19.9 °F 59% 30.19 in 10.0 mi WSW 4.6 mph - N/A   Clear
3:53 PM 28.0 °F 20.0 °F 19.9 °F 72% 30.21 in 10.0 mi South 8.1 mph - N/A   Clear
4:53 PM 25.0 °F 16.3 °F 17.1 °F 72% 30.21 in 10.0 mi South 8.1 mph - N/A   Clear
5:53 PM 23.0 °F 12.4 °F 15.1 °F 72% 30.22 in 10.0 mi SSW 10.4 mph - N/A   Clear
6:53 PM 19.4 °F 7.9 °F 12.2 °F 74% 30.12 in 10.0 mi SW 10.4 mph - N/A   Clear
7:53 PM 21.0 °F 9.3 °F 12.9 °F 71% 30.22 in 10.0 mi SW 11.5 mph - N/A   Clear
8:53 PM 19.9 °F 8.6 °F 12.0 °F 71% 30.20 in 10.0 mi SW 10.4 mph - N/A   Clear
9:53 PM 18.0 °F 6.1 °F 10.9 °F 74% 30.19 in 10.0 mi SW 10.4 mph - N/A   Clear
10:53 PM 19.0 °F 8.2 °F 12.0 °F 74% 30.18 in 10.0 mi SSW 9.2 mph - N/A   Clear
11:53 PM 18.0 °F 8.7 °F 12.0 °F 78% 30.15 in 10.0 mi SSW 6.9 mph - N/A   Clear